Home > Weather > Longueuil > Past weeks

Flag for Canada Past Weather in Longueuil, Quebec, Canada — Yesterday and Last 2 Weeks

Now
74 °F

Mild.


Feels Like: 73 °F
Forecast: 71 / 83 °F
Wind: 2 mph from South

Location: Mc Tavish

Current Time: Aug 26, 2016 at 4:46:05 AM

Latest Report: Aug 26, 2016 at 4:00 AM


Visibility: N/A

Pressure: 29.85 "Hg

Humidity: 87%

Dew Point: 70 °F

Location of LongueuilLocation

Past Weather in Longueuil — Graph

°F

Longueuil Temperature Yesterday

Maximum temperature yesterday: 78 °F (at 7:00 PM)
Minimum temperature yesterday: 71 °F (at 3:00 AM)
Average temperature yesterday: 74 °F

High & Low Weather Summary for the Past Weeks

 TemperatureHumidityPressure
High87 °F (Aug 11, 6:00 PM)98% (Aug 14, 1:00 AM)30.19 "Hg (Aug 14, 1:00 AM)
Low56 °F (Aug 22, 6:00 AM)43% (Aug 19, 4:00 PM)29.68 "Hg (Aug 21, 4:00 PM)
Average72 °F73%29.94 "Hg
* Reported Aug 11 3:00 AM — Aug 26 3:00 AM, Longueuil, Weather by CustomWeather, © 2016

Note: Actual official high and low records may vary slightly from our data, if they occured in-between our weather recording intervals... More about our weather records

Advertising

Longueuil Weather History for the Previous 24 Hours

Scroll right to see more
 ConditionsComfort  
Time TempWeatherWind HumidityBarometerVisibility
3:00 AM
Fri, Aug 26
74 °FMild.2 mph87%29.84 "HgN/A
2:00 AM74 °FMild.3 mph87%29.85 "HgN/A
1:00 AM74 °FMild.3 mph87%29.85 "HgN/A
12:00 AM75 °FMild.3 mph85%29.85 "HgN/A
11:00 PM
Thu, Aug 25
76 °FMild.3 mph84%29.86 "HgN/A
10:00 PM76 °FMild.3 mph87%29.86 "HgN/A
9:00 PM76 °FMild.3 mph91%29.86 "HgN/A
8:00 PM76 °FMild.2 mph91%29.87 "HgN/A
7:00 PM78 °FWarm.1 mph83%29.86 "HgN/A
6:00 PM78 °FWarm.2 mph84%29.85 "HgN/A
5:00 PM76 °FMild.2 mph85%29.85 "HgN/A
4:00 PM74 °FMild.2 mph93%29.86 "HgN/A
3:00 PM72 °FMild.3 mph94%29.87 "HgN/A
2:00 PM72 °FMild.2 mph93%29.88 "HgN/A
1:00 PM72 °FMild.2 mph93%29.88 "HgN/A
12:00 PM75 °FMild.3 mph77%29.89 "HgN/A
11:00 AM76 °FMild.3 mph72%29.88 "HgN/A
10:00 AM76 °FMild.3 mph70%29.90 "HgN/A
9:00 AM74 °FMild.5 mph74%29.89 "HgN/A
8:00 AM72 °FMild.3 mph74%29.90 "HgN/A
7:00 AM71 °FMild.3 mph76%29.91 "HgN/A
6:00 AM71 °FMild.3 mph75%29.91 "HgN/A
5:00 AM71 °FMild.3 mph74%29.91 "HgN/A
4:00 AM72 °FMild.3 mph73%29.93 "HgN/A
Weather by CustomWeather, © 2016

See weather overviewHow to use our weather pages